Time,TemperatureF,DewpointF,PressureIn,WindDirection,WindDirectionDegrees,WindSpeedMPH,WindSpeedGustMPH,Humidity,HourlyPrecipIn,Conditions,Clouds,dailyrainin,SoftwareType,DateUTC
2013-12-08 00:00:00,-18.4,-21.7,30.45,SE,136,3.0,6.0,84,0.00,,,-99.99,Weather View 32 v70,2013-12-08 06:00:00,
2013-12-08 00:10:00,-18.2,-21.6,30.45,SE,136,3.0,6.0,84,0.00,,,-99.99,Weather View 32 v70,2013-12-08 06:10:00,
2013-12-08 00:18:00,-17.9,-21.2,30.45,SE,140,4.0,6.0,84,0.00,,,-99.99,Weather View 32 v70,2013-12-08 06:18:00,
2013-12-08 00:24:00,-17.5,-20.9,30.45,SE,136,0.0,6.0,84,0.00,,,-99.99,Weather View 32 v70,2013-12-08 06:24:00,
2013-12-08 00:29:00,-17.5,-20.9,30.45,SE,136,3.0,6.0,84,0.00,,,-99.99,Weather View 32 v70,2013-12-08 06:29:00,
2013-12-08 00:39:00,-17.1,-20.5,30.42,SE,138,3.0,6.0,84,0.00,,,-99.99,Weather View 32 v70,2013-12-08 06:39:00,
2013-12-08 00:44:00,-16.8,-20.2,30.42,SE,138,0.0,6.0,84,0.00,,,-99.99,Weather View 32 v70,2013-12-08 06:44:00,
2013-12-08 00:54:00,-16.6,-20.0,30.42,SE,138,3.0,6.0,84,0.00,,,-99.99,Weather View 32 v70,2013-12-08 06:54:00,
2013-12-08 00:59:00,-16.1,-19.4,30.42,SE,137,4.0,6.0,84,0.00,,,-99.99,Weather View 32 v70,2013-12-08 06:59:00,
2013-12-08 01:04:00,-15.9,-19.3,30.42,SE,137,4.0,6.0,84,0.00,,,-99.99,Weather View 32 v70,2013-12-08 07:04:00,
2013-12-08 01:09:00,-15.9,-19.3,30.42,SE,137,2.0,6.0,84,0.00,,,-99.99,Weather View 32 v70,2013-12-08 07:09:00,
2013-12-08 01:19:00,-15.9,-19.3,30.42,SE,136,3.0,6.0,84,0.00,,,-99.99,Weather View 32 v70,2013-12-08 07:19:00,
2013-12-08 01:24:00,-15.9,-19.3,30.42,SE,135,0.0,6.0,84,0.00,,,-99.99,Weather View 32 v70,2013-12-08 07:24:00,
2013-12-08 01:29:00,-15.7,-19.1,30.42,SE,135,3.0,6.0,84,0.00,,,-99.99,Weather View 32 v70,2013-12-08 07:29:00,
2013-12-08 01:34:00,-15.7,-19.1,30.39,SE,135,4.0,6.0,84,0.00,,,-99.99,Weather View 32 v70,2013-12-08 07:34:00,
2013-12-08 01:40:00,-15.5,-18.9,30.39,SE,135,3.0,6.0,84,0.00,,,-99.99,Weather View 32 v70,2013-12-08 07:40:00,
2013-12-08 01:50:00,-15.5,-18.9,30.39,SE,134,4.0,6.0,84,0.00,,,-99.99,Weather View 32 v70,2013-12-08 07:50:00,
2013-12-08 01:55:00,-15.3,-18.7,30.39,SE,135,2.0,6.0,84,0.00,,,-99.99,Weather View 32 v70,2013-12-08 07:55:00,
2013-12-08 02:00:00,-15.3,-18.7,30.39,SE,135,3.0,6.0,84,0.00,,,-99.99,Weather View 32 v70,2013-12-08 08:00:00,
2013-12-08 02:10:00,-14.6,-18.0,30.39,SE,135,4.0,6.0,84,0.00,,,-99.99,Weather View 32 v70,2013-12-08 08:10:00,
2013-12-08 02:20:00,-14.3,-17.7,30.36,SE,135,0.0,6.0,84,0.00,,,-99.99,Weather View 32 v70,2013-12-08 08:20:00,
2013-12-08 02:30:00,-14.1,-17.5,30.36,SE,135,3.0,6.0,84,0.00,,,-99.99,Weather View 32 v70,2013-12-08 08:30:00,
2013-12-08 02:40:00,-14.3,-17.7,30.36,SE,135,2.0,6.0,84,0.00,,,-99.99,Weather View 32 v70,2013-12-08 08:40:00,
2013-12-08 02:45:00,-14.4,-17.9,30.36,SE,135,4.0,6.0,84,0.00,,,-99.99,Weather View 32 v70,2013-12-08 08:45:00,
2013-12-08 02:50:00,-14.4,-17.9,30.36,SE,135,0.0,6.0,84,0.00,,,-99.99,Weather View 32 v70,2013-12-08 08:50:00,
2013-12-08 02:59:00,-14.4,-17.9,30.36,SE,135,0.0,6.0,84,0.00,,,-99.99,Weather View 32 v70,2013-12-08 08:59:00,
2013-12-08 03:04:00,-14.4,-17.9,30.36,SE,135,0.0,6.0,84,0.00,,,-99.99,Weather View 32 v70,2013-12-08 09:04:00,
2013-12-08 03:09:00,-14.3,-17.7,30.36,SE,135,0.0,6.0,84,0.00,,,-99.99,Weather View 32 v70,2013-12-08 09:09:00,
2013-12-08 03:19:00,-13.5,-17.0,30.36,SE,135,4.0,5.0,84,0.00,,,-99.99,Weather View 32 v70,2013-12-08 09:19:00,
2013-12-08 03:29:00,-13.0,-16.4,30.36,SE,135,0.0,4.0,84,0.00,,,-99.99,Weather View 32 v70,2013-12-08 09:29:00,
2013-12-08 03:34:00,-13.0,-16.4,30.36,SE,135,0.0,4.0,84,0.00,,,-99.99,Weather View 32 v70,2013-12-08 09:34:00,
2013-12-08 03:39:00,-13.0,-16.4,30.36,SE,135,0.0,4.0,84,0.00,,,-99.99,Weather View 32 v70,2013-12-08 09:39:00,
2013-12-08 03:49:00,-12.8,-16.3,30.33,SE,135,0.0,4.0,84,0.00,,,-99.99,Weather View 32 v70,2013-12-08 09:49:00,
2013-12-08 03:54:00,-12.8,-16.3,30.33,SE,135,2.0,4.0,84,0.00,,,-99.99,Weather View 32 v70,2013-12-08 09:54:00,
2013-12-08 03:59:00,-12.8,-16.3,30.33,SE,136,0.0,4.0,84,0.00,,,-99.99,Weather View 32 v70,2013-12-08 09:59:00,
2013-12-08 04:09:00,-12.8,-16.3,30.33,SE,135,2.0,4.0,84,0.00,,,-99.99,Weather View 32 v70,2013-12-08 10:09:00,
2013-12-08 04:14:00,-12.8,-16.3,30.33,SE,136,0.0,4.0,84,0.00,,,-99.99,Weather View 32 v70,2013-12-08 10:14:00,
2013-12-08 04:20:00,-12.6,-16.1,30.33,SE,136,0.0,4.0,84,0.00,,,-99.99,Weather View 32 v70,2013-12-08 10:20:00,
2013-12-08 04:29:00,-12.3,-15.7,30.33,SE,135,0.0,4.0,84,0.00,,,-99.99,Weather View 32 v70,2013-12-08 10:29:00,
2013-12-08 04:35:00,-11.9,-15.4,30.33,SE,135,0.0,4.0,84,0.00,,,-99.99,Weather View 32 v70,2013-12-08 10:35:00,
2013-12-08 04:40:00,-11.9,-15.4,30.33,SE,135,0.0,4.0,84,0.00,,,-99.99,Weather View 32 v70,2013-12-08 10:40:00,
2013-12-08 04:50:00,-11.6,-15.0,30.30,SE,135,0.0,4.0,84,0.00,,,-99.99,Weather View 32 v70,2013-12-08 10:50:00,
2013-12-08 05:00:00,-11.4,-14.8,30.30,SE,135,0.0,4.0,84,0.00,,,-99.99,Weather View 32 v70,2013-12-08 11:00:00,
2013-12-08 05:05:00,-11.2,-14.7,30.30,SE,135,0.0,4.0,84,0.00,,,-99.99,Weather View 32 v70,2013-12-08 11:05:00,
2013-12-08 05:15:00,-11.4,-14.8,30.30,SE,135,0.0,3.0,84,0.00,,,-99.99,Weather View 32 v70,2013-12-08 11:15:00,
2013-12-08 05:22:00,-11.4,-14.8,30.30,SE,135,0.0,3.0,84,0.00,,,-99.99,Weather View 32 v70,2013-12-08 11:22:00,
2013-12-08 05:30:00,-11.4,-14.8,30.30,SE,135,0.0,2.0,84,0.00,,,-99.99,Weather View 32 v70,2013-12-08 11:30:00,
2013-12-08 05:35:00,-11.2,-14.7,30.27,SE,135,0.0,2.0,84,0.00,,,-99.99,Weather View 32 v70,2013-12-08 11:35:00,
2013-12-08 05:45:00,-11.2,-14.7,30.27,SE,134,0.0,2.0,84,0.00,,,-99.99,Weather View 32 v70,2013-12-08 11:45:00,
2013-12-08 05:50:00,-11.2,-14.7,30.27,SE,135,0.0,2.0,84,0.00,,,-99.99,Weather View 32 v70,2013-12-08 11:50:00,
2013-12-08 06:00:00,-11.0,-14.5,30.27,SE,135,0.0,2.0,84,0.00,,,-99.99,Weather View 32 v70,2013-12-08 12:00:00,
2013-12-08 06:09:00,-10.8,-14.3,30.27,SE,135,0.0,2.0,84,0.00,,,-99.99,Weather View 32 v70,2013-12-08 12:09:00,
2013-12-08 06:14:00,-10.7,-14.1,30.27,SE,135,0.0,2.0,84,0.00,,,-99.99,Weather View 32 v70,2013-12-08 12:14:00,
2013-12-08 06:22:00,-10.5,-14.0,30.27,SE,135,0.0,2.0,84,0.00,,,-99.99,Weather View 32 v70,2013-12-08 12:22:00,
2013-12-08 06:29:00,-10.3,-13.8,30.27,SE,134,2.0,2.0,84,0.00,,,-99.99,Weather View 32 v70,2013-12-08 12:29:00,
2013-12-08 06:34:00,-10.1,-13.6,30.27,SE,135,0.0,2.0,84,0.00,,,-99.99,Weather View 32 v70,2013-12-08 12:34:00,
2013-12-08 06:39:00,-9.9,-13.4,30.27,SE,135,0.0,2.0,84,0.00,,,-99.99,Weather View 32 v70,2013-12-08 12:39:00,
2013-12-08 06:49:00,-9.6,-13.1,30.27,SE,135,0.0,2.0,84,0.00,,,-99.99,Weather View 32 v70,2013-12-08 12:49:00,
2013-12-08 06:59:00,-9.2,-12.7,30.27,SE,135,0.0,3.0,84,0.00,,,-99.99,Weather View 32 v70,2013-12-08 12:59:00,
2013-12-08 07:09:00,-9.0,-12.6,30.24,SE,134,0.0,3.0,84,0.00,,,-99.99,Weather View 32 v70,2013-12-08 13:09:00,
2013-12-08 07:14:00,-8.9,-12.4,30.24,SE,134,0.0,3.0,84,0.00,,,-99.99,Weather View 32 v70,2013-12-08 13:14:00,
2013-12-08 07:22:00,-8.9,-12.4,30.24,SE,135,0.0,3.0,84,0.00,,,-99.99,Weather View 32 v70,2013-12-08 13:22:00,
2013-12-08 07:29:00,-9.0,-12.6,30.24,SE,134,0.0,3.0,84,0.00,,,-99.99,Weather View 32 v70,2013-12-08 13:29:00,
2013-12-08 07:35:00,-9.2,-12.7,30.24,SE,134,0.0,3.0,84,0.00,,,-99.99,Weather View 32 v70,2013-12-08 13:35:00,
2013-12-08 07:40:00,-9.2,-12.7,30.24,SE,134,0.0,3.0,84,0.00,,,-99.99,Weather View 32 v70,2013-12-08 13:40:00,
2013-12-08 07:50:00,-9.0,-12.6,30.24,SE,134,0.0,3.0,84,0.00,,,-99.99,Weather View 32 v70,2013-12-08 13:50:00,
2013-12-08 07:55:00,-8.9,-12.4,30.24,SE,134,0.0,3.0,84,0.00,,,-99.99,Weather View 32 v70,2013-12-08 13:55:00,
2013-12-08 08:00:00,-8.7,-12.2,30.24,SE,133,0.0,3.0,84,0.00,,,-99.99,Weather View 32 v70,2013-12-08 14:00:00,
2013-12-08 08:05:00,-8.5,-12.0,30.24,SE,133,0.0,3.0,84,0.00,,,-99.99,Weather View 32 v70,2013-12-08 14:05:00,
2013-12-08 08:15:00,-8.1,-11.7,30.21,SE,132,0.0,3.0,84,0.00,,,-99.99,Weather View 32 v70,2013-12-08 14:15:00,
2013-12-08 08:24:00,-8.0,-11.5,30.21,SE,131,0.0,3.0,84,0.00,,,-99.99,Weather View 32 v70,2013-12-08 14:24:00,
2013-12-08 08:30:00,-7.2,-10.8,30.21,SE,131,0.0,3.0,84,0.00,,,-99.99,Weather View 32 v70,2013-12-08 14:30:00,
2013-12-08 08:35:00,-6.9,-10.4,30.21,SE,127,2.0,4.0,84,0.00,,,-99.99,Weather View 32 v70,2013-12-08 14:35:00,
2013-12-08 08:45:00,-6.3,-9.9,30.21,SE,127,2.0,4.0,84,0.00,,,-99.99,Weather View 32 v70,2013-12-08 14:45:00,
2013-12-08 08:50:00,-6.0,-9.5,30.21,SE,125,0.0,4.0,84,0.00,,,-99.99,Weather View 32 v70,2013-12-08 14:50:00,
2013-12-08 09:00:00,-5.3,-8.8,30.21,ESE,116,0.0,4.0,84,0.00,,,-99.99,Weather View 32 v70,2013-12-08 15:00:00,
2013-12-08 09:10:00,-4.7,-8.3,30.21,ESE,119,0.0,4.0,84,0.00,,,-99.99,Weather View 32 v70,2013-12-08 15:10:00,
2013-12-08 09:15:00,-4.5,-8.1,30.21,SE,128,4.0,4.0,84,0.00,,,-99.99,Weather View 32 v70,2013-12-08 15:15:00,
2013-12-08 09:24:00,-4.4,-8.0,30.21,ESE,121,3.0,5.0,84,0.00,,,-99.99,Weather View 32 v70,2013-12-08 15:24:00,
2013-12-08 09:30:00,-3.5,-7.1,30.21,East,101,0.0,5.0,84,0.00,,,-99.99,Weather View 32 v70,2013-12-08 15:30:00,
2013-12-08 09:40:00,-2.9,-6.5,30.21,SE,129,3.0,5.0,84,0.00,,,-99.99,Weather View 32 v70,2013-12-08 15:40:00,
2013-12-08 09:45:00,-2.6,-6.2,30.21,SE,133,2.0,5.0,84,0.00,,,-99.99,Weather View 32 v70,2013-12-08 15:45:00,
2013-12-08 09:55:00,-1.8,-5.5,30.21,SE,145,3.0,5.0,84,0.00,,,-99.99,Weather View 32 v70,2013-12-08 15:55:00,
2013-12-08 10:00:00,-1.5,-5.1,30.18,SE,138,4.0,7.0,84,0.00,,,-99.99,Weather View 32 v70,2013-12-08 16:00:00,
2013-12-08 10:10:00,-1.3,-4.9,30.18,SE,145,0.0,7.0,84,0.00,,,-99.99,Weather View 32 v70,2013-12-08 16:10:00,
2013-12-08 10:15:00,-0.9,-4.6,30.21,SE,140,4.0,7.0,84,0.00,,,-99.99,Weather View 32 v70,2013-12-08 16:15:00,
2013-12-08 10:20:00,-0.9,-4.6,30.21,SE,145,0.0,7.0,84,0.00,,,-99.99,Weather View 32 v70,2013-12-08 16:20:00,
2013-12-08 10:30:00,-0.4,-4.1,30.18,SE,137,4.0,7.0,84,0.00,,,-99.99,Weather View 32 v70,2013-12-08 16:30:00,
2013-12-08 10:35:00,-0.2,-3.9,30.18,SE,143,5.0,7.0,84,0.00,,,-99.99,Weather View 32 v70,2013-12-08 16:35:00,
2013-12-08 10:45:00,0.3,-3.4,30.18,SE,131,4.0,7.0,84,0.00,,,-99.99,Weather View 32 v70,2013-12-08 16:45:00,
2013-12-08 10:50:00,0.7,-3.0,30.18,SE,135,2.0,7.0,84,0.00,,,-99.99,Weather View 32 v70,2013-12-08 16:50:00,
2013-12-08 11:00:00,1.0,-2.7,30.18,SE,139,5.0,7.0,84,0.00,,,-99.99,Weather View 32 v70,2013-12-08 17:00:00,
2013-12-08 11:10:00,1.2,-2.5,30.18,SE,142,6.0,8.0,84,0.00,,,-99.99,Weather View 32 v70,2013-12-08 17:10:00,
2013-12-08 11:20:00,1.4,-2.3,30.15,SE,142,4.0,8.0,84,0.00,,,-99.99,Weather View 32 v70,2013-12-08 17:20:00,
2013-12-08 11:25:00,1.6,-2.1,30.15,SE,134,2.0,8.0,84,0.00,,,-99.99,Weather View 32 v70,2013-12-08 17:25:00,
2013-12-08 11:35:00,1.8,-1.9,30.15,SE,129,2.0,8.0,84,0.00,,,-99.99,Weather View 32 v70,2013-12-08 17:35:00,
2013-12-08 11:40:00,1.9,-1.8,30.15,SE,146,3.0,8.0,84,0.00,,,-99.99,Weather View 32 v70,2013-12-08 17:40:00,
2013-12-08 11:50:00,2.3,-1.4,30.15,SE,143,3.0,8.0,84,0.00,,,-99.99,Weather View 32 v70,2013-12-08 17:50:00,
2013-12-08 11:55:00,1.9,-1.8,30.15,SE,135,6.0,8.0,84,0.00,,,-99.99,Weather View 32 v70,2013-12-08 17:55:00,
2013-12-08 12:00:00,2.1,-1.6,30.12,SE,144,3.0,8.0,84,0.00,,,-99.99,Weather View 32 v70,2013-12-08 18:00:00,
2013-12-08 12:10:00,2.7,-1.1,30.12,SE,139,5.0,8.0,84,0.00,,,-99.99,Weather View 32 v70,2013-12-08 18:10:00,
2013-12-08 12:20:00,3.2,-0.5,30.12,SE,138,3.0,8.0,84,0.00,,,-99.99,Weather View 32 v70,2013-12-08 18:20:00,
2013-12-08 12:26:00,3.6,-0.2,30.12,SE,137,3.0,8.0,84,0.00,,,-99.99,Weather View 32 v70,2013-12-08 18:26:00,
2013-12-08 12:35:00,3.7,0.0,30.12,SE,139,5.0,6.0,84,0.00,,,-99.99,Weather View 32 v70,2013-12-08 18:35:00,
2013-12-08 12:40:00,3.6,-0.2,30.12,SE,135,4.0,6.0,84,0.00,,,-99.99,Weather View 32 v70,2013-12-08 18:40:00,
2013-12-08 12:50:00,3.7,0.0,30.09,SE,138,4.0,6.0,84,0.00,,,-99.99,Weather View 32 v70,2013-12-08 18:50:00,
2013-12-08 13:00:00,4.5,0.7,30.09,SE,137,3.0,6.0,84,0.00,,,-99.99,Weather View 32 v70,2013-12-08 19:00:00,
2013-12-08 13:05:00,4.5,0.7,30.09,SE,134,6.0,6.0,84,0.00,,,-99.99,Weather View 32 v70,2013-12-08 19:05:00,
2013-12-08 13:15:00,4.6,0.9,30.09,SE,127,5.0,8.0,84,0.00,,,-99.99,Weather View 32 v70,2013-12-08 19:15:00,
2013-12-08 13:25:00,4.5,0.7,30.09,SE,137,4.0,9.0,84,0.00,,,-99.99,Weather View 32 v70,2013-12-08 19:25:00,
2013-12-08 13:35:00,4.5,0.7,30.09,SE,126,4.0,9.0,84,0.00,,,-99.99,Weather View 32 v70,2013-12-08 19:35:00,
2013-12-08 13:40:00,4.5,0.7,30.09,SE,132,6.0,9.0,84,0.00,,,-99.99,Weather View 32 v70,2013-12-08 19:40:00,
2013-12-08 13:50:00,4.5,0.7,30.09,SE,141,3.0,9.0,84,0.00,,,-99.99,Weather View 32 v70,2013-12-08 19:50:00,
2013-12-08 14:00:00,4.6,0.9,30.09,SE,138,5.0,9.0,84,0.00,,,-99.99,Weather View 32 v70,2013-12-08 20:00:00,
2013-12-08 14:05:00,5.0,1.2,30.09,SE,136,5.0,9.0,84,0.00,,,-99.99,Weather View 32 v70,2013-12-08 20:05:00,
2013-12-08 14:15:00,5.0,1.2,30.06,SSE,151,4.0,9.0,84,0.00,,,-99.99,Weather View 32 v70,2013-12-08 20:15:00,
2013-12-08 14:25:00,5.0,1.2,30.06,SSE,161,3.0,8.0,84,0.00,,,-99.99,Weather View 32 v70,2013-12-08 20:25:00,
2013-12-08 14:30:00,5.0,1.2,30.06,SE,137,6.0,8.0,84,0.00,,,-99.99,Weather View 32 v70,2013-12-08 20:30:00,
2013-12-08 14:40:00,4.8,1.1,30.06,SE,128,5.0,8.0,84,0.00,,,-99.99,Weather View 32 v70,2013-12-08 20:40:00,
2013-12-08 14:55:00,5.2,1.4,30.06,SE,136,3.0,8.0,84,0.00,,,-99.99,Weather View 32 v70,2013-12-08 20:55:00,
2013-12-08 15:00:00,5.4,1.6,30.06,SE,133,5.0,8.0,84,0.00,,,-99.99,Weather View 32 v70,2013-12-08 21:00:00,
2013-12-08 15:05:00,5.4,1.6,30.06,SE,130,3.0,8.0,84,0.00,,,-99.99,Weather View 32 v70,2013-12-08 21:05:00,
2013-12-08 15:15:00,5.5,1.8,30.06,SE,137,3.0,8.0,84,0.00,,,-99.99,Weather View 32 v70,2013-12-08 21:15:00,
2013-12-08 15:25:00,5.5,1.8,30.06,SE,133,5.0,8.0,84,0.00,,,-99.99,Weather View 32 v70,2013-12-08 21:25:00,
2013-12-08 15:30:00,5.5,1.8,30.06,SE,129,5.0,8.0,84,0.00,,,-99.99,Weather View 32 v70,2013-12-08 21:30:00,
2013-12-08 15:35:00,5.4,1.6,30.06,SE,133,4.0,8.0,84,0.00,,,-99.99,Weather View 32 v70,2013-12-08 21:35:00,
2013-12-08 15:40:00,5.2,1.4,30.06,SE,128,3.0,8.0,84,0.00,,,-99.99,Weather View 32 v70,2013-12-08 21:40:00,
2013-12-08 15:50:00,5.0,1.2,30.06,SE,134,3.0,7.0,84,0.00,,,-99.99,Weather View 32 v70,2013-12-08 21:50:00,
2013-12-08 15:55:00,5.0,1.2,30.06,SE,138,4.0,7.0,84,0.00,,,-99.99,Weather View 32 v70,2013-12-08 21:55:00,
2013-12-08 16:05:00,5.0,1.2,30.03,SSE,148,3.0,7.0,84,0.00,,,-99.99,Weather View 32 v70,2013-12-08 22:05:00,
2013-12-08 16:15:00,5.2,1.4,30.03,SE,136,3.0,6.0,84,0.00,,,-99.99,Weather View 32 v70,2013-12-08 22:15:00,
2013-12-08 16:20:00,5.2,1.4,30.03,SE,131,3.0,6.0,84,0.00,,,-99.99,Weather View 32 v70,2013-12-08 22:20:00,
2013-12-08 16:28:00,5.2,1.4,30.03,SE,134,5.0,8.0,84,0.00,,,-99.99,Weather View 32 v70,2013-12-08 22:28:00,
2013-12-08 16:35:00,5.2,1.4,30.03,SE,131,6.0,8.0,84,0.00,,,-99.99,Weather View 32 v70,2013-12-08 22:35:00,
2013-12-08 16:45:00,5.2,1.4,30.03,SE,133,4.0,8.0,84,0.00,,,-99.99,Weather View 32 v70,2013-12-08 22:45:00,
2013-12-08 16:50:00,5.2,1.4,30.03,SE,125,4.0,8.0,84,0.00,,,-99.99,Weather View 32 v70,2013-12-08 22:50:00,
2013-12-08 17:00:00,5.0,1.2,30.03,SE,131,4.0,8.0,84,0.00,,,-99.99,Weather View 32 v70,2013-12-08 23:00:00,
2013-12-08 17:05:00,5.0,1.2,30.03,SE,134,0.0,8.0,84,0.00,,,-99.99,Weather View 32 v70,2013-12-08 23:05:00,
2013-12-08 17:15:00,4.6,0.9,30.03,SE,134,0.0,8.0,84,0.00,,,-99.99,Weather View 32 v70,2013-12-08 23:15:00,
2013-12-08 17:20:00,4.5,0.7,30.03,SE,135,4.0,8.0,84,0.00,,,-99.99,Weather View 32 v70,2013-12-08 23:20:00,
2013-12-08 17:29:00,4.3,0.5,30.03,SE,134,2.0,6.0,84,0.00,,,-99.99,Weather View 32 v70,2013-12-08 23:29:00,
2013-12-08 17:35:00,4.1,0.3,30.03,SE,139,5.0,6.0,84,0.00,,,-99.99,Weather View 32 v70,2013-12-08 23:35:00,
2013-12-08 17:45:00,4.1,0.3,30.03,SE,137,3.0,6.0,84,0.00,,,-99.99,Weather View 32 v70,2013-12-08 23:45:00,
2013-12-08 17:50:00,4.1,0.3,30.03,SE,135,4.0,6.0,84,0.00,,,-99.99,Weather View 32 v70,2013-12-08 23:50:00,
2013-12-08 18:00:00,4.1,0.3,30.03,SE,134,0.0,5.0,84,0.00,,,-99.99,Weather View 32 v70,2013-12-09 00:00:00,
2013-12-08 18:05:00,4.1,0.3,30.03,SE,134,2.0,5.0,84,0.00,,,-99.99,Weather View 32 v70,2013-12-09 00:05:00,
2013-12-08 18:15:00,4.1,0.3,30.03,SE,134,4.0,5.0,84,0.00,,,-99.99,Weather View 32 v70,2013-12-09 00:15:00,
2013-12-08 18:20:00,3.9,0.2,30.03,SE,134,4.0,5.0,84,0.00,,,-99.99,Weather View 32 v70,2013-12-09 00:20:00,
2013-12-08 18:25:00,3.9,0.2,30.03,SE,134,0.0,5.0,84,0.00,,,-99.99,Weather View 32 v70,2013-12-09 00:25:00,
2013-12-08 18:35:00,3.6,-0.2,30.03,SE,134,0.0,5.0,84,0.00,,,-99.99,Weather View 32 v70,2013-12-09 00:35:00,
2013-12-08 18:40:00,3.4,-0.4,30.03,SE,134,3.0,5.0,84,0.00,,,-99.99,Weather View 32 v70,2013-12-09 00:40:00,
2013-12-08 18:45:00,3.2,-0.5,30.03,SE,134,0.0,5.0,84,0.00,,,-99.99,Weather View 32 v70,2013-12-09 00:45:00,
2013-12-08 18:50:00,3.0,-0.7,30.03,SE,133,0.0,5.0,84,0.00,,,-99.99,Weather View 32 v70,2013-12-09 00:50:00,
2013-12-08 19:00:00,2.5,-1.2,30.03,SE,134,0.0,4.0,84,0.00,,,-99.99,Weather View 32 v70,2013-12-09 01:00:00,
2013-12-08 19:05:00,2.3,-1.4,30.03,SE,134,0.0,4.0,84,0.00,,,-99.99,Weather View 32 v70,2013-12-09 01:05:00,
2013-12-08 19:15:00,1.9,-1.8,30.03,SE,134,0.0,4.0,84,0.00,,,-99.99,Weather View 32 v70,2013-12-09 01:15:00,
2013-12-08 19:25:00,1.6,-2.1,30.03,SE,134,0.0,4.0,84,0.00,,,-99.99,Weather View 32 v70,2013-12-09 01:25:00,
2013-12-08 19:30:00,1.4,-2.3,30.03,SE,134,0.0,4.0,84,0.00,,,-99.99,Weather View 32 v70,2013-12-09 01:30:00,
2013-12-08 19:40:00,1.0,-2.7,30.03,SE,134,0.0,4.0,84,0.00,,,-99.99,Weather View 32 v70,2013-12-09 01:40:00,
2013-12-08 19:45:00,0.9,-2.8,30.00,SE,134,0.0,4.0,84,0.00,,,-99.99,Weather View 32 v70,2013-12-09 01:45:00,
2013-12-08 19:55:00,0.7,-3.0,30.00,SE,134,0.0,4.0,84,0.00,,,-99.99,Weather View 32 v70,2013-12-09 01:55:00,
2013-12-08 20:00:00,0.3,-3.4,30.00,SE,134,0.0,4.0,84,0.00,,,-99.99,Weather View 32 v70,2013-12-09 02:00:00,
2013-12-08 20:10:00,0.1,-3.5,30.00,SE,134,0.0,4.0,84,0.00,,,-99.99,Weather View 32 v70,2013-12-09 02:10:00,
2013-12-08 20:20:00,-0.2,-3.9,30.00,SE,134,0.0,4.0,84,0.00,,,-99.99,Weather View 32 v70,2013-12-09 02:20:00,
2013-12-08 20:25:00,-0.6,-4.2,30.00,SE,134,0.0,4.0,84,0.00,,,-99.99,Weather View 32 v70,2013-12-09 02:25:00,
2013-12-08 20:30:00,-0.6,-4.2,30.00,SE,134,0.0,4.0,84,0.00,,,-99.99,Weather View 32 v70,2013-12-09 02:30:00,
2013-12-08 20:40:00,-0.9,-4.6,30.00,SE,135,0.0,4.0,84,0.00,,,-99.99,Weather View 32 v70,2013-12-09 02:40:00,
2013-12-08 20:50:00,-1.3,-4.9,30.00,SE,134,0.0,3.0,84,0.00,,,-99.99,Weather View 32 v70,2013-12-09 02:50:00,
2013-12-08 20:55:00,-1.5,-5.1,30.00,SE,134,0.0,3.0,84,0.00,,,-99.99,Weather View 32 v70,2013-12-09 02:55:00,
2013-12-08 21:00:00,-1.8,-5.5,30.00,SE,134,0.0,3.0,84,0.00,,,-99.99,Weather View 32 v70,2013-12-09 03:00:00,
2013-12-08 21:10:00,-2.2,-5.8,30.00,SE,134,0.0,3.0,84,0.00,,,-99.99,Weather View 32 v70,2013-12-09 03:10:00,
2013-12-08 21:20:00,-2.6,-6.2,30.00,SE,134,0.0,0.0,84,0.00,,,-99.99,Weather View 32 v70,2013-12-09 03:20:00,
2013-12-08 21:30:00,-2.6,-6.2,30.00,SE,134,0.0,0.0,84,0.00,,,-99.99,Weather View 32 v70,2013-12-09 03:30:00,
2013-12-08 21:35:00,-2.2,-5.8,30.00,SE,134,0.0,0.0,84,0.00,,,-99.99,Weather View 32 v70,2013-12-09 03:35:00,
2013-12-08 21:45:00,-0.8,-4.4,30.00,SE,139,0.0,4.0,84,0.00,,,-99.99,Weather View 32 v70,2013-12-09 03:45:00,
2013-12-08 21:55:00,-0.2,-3.9,30.00,South,187,3.0,4.0,84,0.00,,,-99.99,Weather View 32 v70,2013-12-09 03:55:00,
2013-12-08 22:00:00,0.0,-3.7,30.00,West,268,3.0,5.0,84,0.00,,,-99.99,Weather View 32 v70,2013-12-09 04:00:00,
2013-12-08 22:10:00,-0.2,-3.9,30.00,West,271,3.0,5.0,84,0.00,,,-99.99,Weather View 32 v70,2013-12-09 04:10:00,
2013-12-08 22:20:00,-0.4,-4.1,30.00,WNW,286,4.0,6.0,84,0.00,,,-99.99,Weather View 32 v70,2013-12-09 04:20:00,
2013-12-08 22:25:00,-0.6,-4.2,30.00,West,276,3.0,6.0,84,0.00,,,-99.99,Weather View 32 v70,2013-12-09 04:25:00,
2013-12-08 22:32:00,-0.8,-4.4,30.00,West,268,4.0,6.0,84,0.00,,,-99.99,Weather View 32 v70,2013-12-09 04:32:00,
2013-12-08 22:40:00,-0.9,-4.6,30.00,West,263,5.0,6.0,84,0.00,,,-99.99,Weather View 32 v70,2013-12-09 04:40:00,
2013-12-08 22:50:00,-1.1,-4.8,30.00,WNW,285,3.0,6.0,84,0.00,,,-99.99,Weather View 32 v70,2013-12-09 04:50:00,
2013-12-08 23:00:00,-1.8,-5.5,30.00,West,268,4.0,6.0,84,0.00,,,-99.99,Weather View 32 v70,2013-12-09 05:00:00,
2013-12-08 23:05:00,-2.0,-5.7,30.00,West,269,4.0,6.0,84,0.00,,,-99.99,Weather View 32 v70,2013-12-09 05:05:00,
2013-12-08 23:10:00,-2.2,-5.8,30.00,West,270,4.0,6.0,84,0.00,,,-99.99,Weather View 32 v70,2013-12-09 05:10:00,
2013-12-08 23:15:00,-2.6,-6.2,30.00,West,266,3.0,6.0,84,0.00,,,-99.99,Weather View 32 v70,2013-12-09 05:15:00,
2013-12-08 23:20:00,-2.7,-6.4,30.00,West,271,3.0,6.0,84,0.00,,,-99.99,Weather View 32 v70,2013-12-09 05:20:00,
2013-12-08 23:25:00,-3.1,-6.7,30.00,West,272,3.0,6.0,84,0.00,,,-99.99,Weather View 32 v70,2013-12-09 05:25:00,
2013-12-08 23:30:00,-3.3,-6.9,30.00,West,272,2.0,6.0,84,0.00,,,-99.99,Weather View 32 v70,2013-12-09 05:30:00,
2013-12-08 23:40:00,-3.8,-7.4,30.00,West,272,3.0,6.0,84,0.00,,,-99.99,Weather View 32 v70,2013-12-09 05:40:00,
2013-12-08 23:45:00,-3.8,-7.4,30.00,West,272,4.0,6.0,84,0.00,,,-99.99,Weather View 32 v70,2013-12-09 05:45:00,
2013-12-08 23:55:00,-4.2,-7.8,30.00,West,272,6.0,6.0,84,0.00,,,-99.99,Weather View 32 v70,2013-12-09 05:55:00,